Temp
-1 -1 -0 2 1 1 2 2 2 3 4 3 4 4 5 5 5 6 5 6 6 6 5 5 6 6 7 7 7 8 8 7 7 7 7 6 6 6 6 5 5 6 6 6
-1 0 1 0 0 1 0 0 1 2 2 2 3 4 5 6 5 5 5 6 7 7 6 6 6 6 7 6 7 7 7 7 7 7 6 6 6 6 5 5 5 6 7 6
-1 -1 -1 -1 -0 -0 -0 -1 -0 1 2 1 2 2 5 6 6 6 6 6 6 7 7 7 6 6 6 7 7 7 7 7 7 7 7 6 6 6 6 6 6 7 6 6
-1 -1 -1 -1 -0 -0 -0 0 0 0 0 1 1 1 4 5 6 7 7 7 7 7 8 7 8 7 7 7 6 7 7 7 7 7 8 7 8 7 6 6 5 6 6 6
-1 -1 -2 -1 -0 -0 -1 -0 0 1 0 0 1 0 2 4 6 7 9 9 9 8 8 8 8 8 7 6 6 6 6 6 7 7 7 8 8 8 7 7 6 6 6 6
-1 -1 -2 -1 -1 -0 -0 -1 -1 -0 -1 -1 0 0 2 3 5 8 9 9 9 8 8 8 8 7 7 7 6 6 6 7 6 6 7 8 8 8 8 8 7 6 6 6
-3 -2 -2 -2 -2 -2 -2 -2 -1 -1 -1 -1 1 0 1 3 4 6 9 9 8 9 8 9 9 8 9 8 8 7 7 7 7 7 6 7 7 7 7 8 7 7 6 6
-3 -3 -2 -2 -2 -1 -2 -2 -0 -1 -2 -0 1 1 2 3 5 6 7 8 8 7 8 9 9 9 9 9 9 8 8 8 7 7 7 6 7 7 7 7 7 7 7 7
-3 -3 -2 -3 -2 -2 -2 -2 -1 -1 -0 -2 1 2 3 3 4 5 7 8 8 8 8 8 8 8 8 9 9 9 8 8 7 7 6 6 6 6 7 7 7 7 7 7
-3 -3 -3 -2 -2 -2 -1 -2 -2 -2 -2 -3 0 1 3 4 5 5 7 8 8 8 7 8 8 8 8 8 8 8 8 8 7 7 6 6 6 6 6 6 6 6 6 7
-3 -3 -3 -3 -3 -3 -2 -3 -2 -1 -1 -2 -2 2 3 4 4 5 6 7 8 8 6 7 7 7 8 7 7 7 8 8 8 7 6 6 6 6 6 6 7 7 6 6
-4 -4 -4 -3 -2 -2 -2 -2 -2 -1 -1 -2 -0 1 4 5 5 5 6 7 7 7 7 6 6 6 6 7 7 7 7 8 8 6 6 7 7 7 7 7 7 7 7 6
-4 -4 -4 -4 -3 -3 -3 -2 -2 -2 -1 -0 -1 2 3 3 4 5 6 7 6 6 6 6 6 6 6 7 7 7 7 7 7 7 6 6 6 7 7 6 6 6 6 6
-4 -4 -4 -4 -2 -2 -3 -3 -2 -2 -2 -1 -0 2 2 2 3 4 5 6 6 6 6 6 6 6 6 6 6 6 6 6 6 6 6 6 6 6 6 6 6 6 6 6
-4 -4 -4 -4 -3 -3 -1 -2 -2 -2 -0 -2 -0 -0 4 2 3 3 4 5 5 5 5 5 5 5 6 6 6 5 5 5 5 5 5 6 6 6 6 6 6 6 6 6
-5 -4 -4 -4 -4 -4 -2 -2 -3 -2 -1 -1 1 1 3 1 2 2 3 4 5 5 5 4 4 5 5 5 5 4 4 4 4 4 5 5 5 5 5 5 5 5 5 5
-4 -4 -5 -5 -4 -4 -4 -2 -2 -2 -2 -2 -2 3 2 1 1 2 3 3 4 4 3 3 3 4 4 4 4 4 4 4 5 5 5 4 4 4 4 4 4 4 4 4
-5 -5 -6 -5 -5 -6 -2 -2 -1 -1 0 0 0 1 2 2 1 1 1 2 3 3 2 3 3 3 3 3 4 4 4 4 4 4 4 4 4 4 4 4 4 4 4 3
-5 -5 -6 -6 -5 -4 -3 -1 -2 -3 -0 1 2 4 4 2 0 1 2 2 2 3 3 3 2 2 2 2 3 3 4 4 4 4 4 4 4 4 4 3 3 3 3 3
-4 -5 -7 -6 -7 -8 -1 -2 -1 -1 -3 3 2 4 4 2 -0 6 2 2 1 2 2 2 2 2 2 2 2 3 3 3 3 3 3 3 3 3 3 3 2 2 2 2
-5 -8 -8 -7 -6 -4 -1 -1 -2 -3 1 2 3 5 4 3 5 5 4 2 2 1 2 1 1 2 2 2 2 2 2 2 2 2 2 2 2 2 2 2 2 2 2 2
-6 -7 -7 -8 -7 -6 -2 -1 -2 -1 0 2 3 3 4 4 4 3 2 1 1 1 1 2 2 2 2 2 2 2 2 1 1 1 1 1 1 1 1 1 1 1 1 1
-6 -5 -5 -5 -4 -2 -1 -1 -2 -1 0 1 1 2 2 3 3 3 3 1 0 0 0 1 1 1 1 1 1 1 1 1 1 0 0 -0 -0 -0 0 0 0 0 0 0
-6 -5 -5 -5 -3 -3 -2 -2 -3 -2 -0 0 2 2 2 2 1 2 2 2 0 -0 -1 0 -0 1 1 1 1 0 -0 -0 -0 -1 -1 -1 -1 -1 -1 -1 -0 -0 -0 -1
-5 -5 -5 -5 -4 -4 -2 -3 -3 -3 -1 -0 1 1 1 1 1 2 2 -0 -2 -1 -1 -1 -1 0 0 0 -1 -1 -1 -1 -1 -1 -1 -1 -1 -1 -1 -1 -1 -1 -1 -1
-6 -5 -5 -5 -5 -2 -4 -4 -3 -3 -2 -1 -1 -1 -0 1 1 1 1 -2 -2 -2 -2 -1 -1 -0 -0 -1 -1 -1 -1 -1 -1 -2 -2 -2 -2 -1 -1 -1 -1 -2 -2 -2
Height
3120 3123 3120 3124 3130 3135 3136 3138 3139 3141 3146 3146 3145 3143 3145 3149 3149 3149 3150 3151 3152 3153 3158 3159 3159 3161 3162 3163 3164 3166 3166 3169 3170 3171 3172 3175 3178 3180 3181 3183 3184 3185 3186 3187
3117 3112 3120 3126 3130 3132 3134 3134 3136 3139 3142 3141 3140 3136 3138 3139 3140 3141 3143 3145 3146 3148 3150 3153 3154 3155 3157 3159 3161 3161 3164 3163 3166 3168 3170 3170 3173 3175 3177 3178 3178 3179 3180 3182
3109 3112 3116 3120 3124 3128 3129 3131 3134 3138 3138 3137 3136 3127 3126 3130 3133 3134 3134 3135 3138 3140 3143 3146 3148 3150 3152 3154 3156 3158 3160 3160 3161 3162 3164 3165 3166 3168 3170 3172 3174 3176 3177 3178
3108 3110 3112 3116 3119 3125 3125 3129 3133 3135 3138 3134 3135 3121 3117 3121 3123 3125 3129 3129 3130 3133 3136 3139 3142 3143 3144 3147 3150 3153 3153 3155 3156 3157 3157 3159 3161 3163 3166 3168 3170 3170 3172 3173
3098 3102 3107 3110 3112 3121 3121 3126 3129 3133 3134 3132 3130 3129 3104 3113 3112 3116 3121 3124 3124 3127 3130 3132 3133 3135 3138 3140 3142 3145 3147 3148 3149 3151 3152 3153 3154 3157 3161 3161 3163 3164 3166 3167
3098 3099 3104 3106 3112 3118 3122 3125 3127 3128 3131 3128 3115 3125 3097 3103 3105 3110 3115 3118 3119 3121 3122 3124 3126 3128 3128 3131 3132 3135 3137 3141 3143 3144 3145 3147 3149 3150 3153 3156 3157 3159 3160 3161
3090 3093 3097 3101 3105 3111 3116 3123 3123 3124 3124 3112 3109 3115 3095 3097 3100 3103 3108 3111 3113 3113 3114 3114 3116 3119 3121 3122 3124 3126 3129 3133 3136 3138 3139 3141 3143 3144 3145 3148 3150 3151 3153 3153
3085 3088 3089 3092 3098 3103 3108 3115 3114 3113 3113 3105 3107 3101 3085 3091 3096 3100 3103 3105 3105 3107 3107 3108 3109 3110 3113 3115 3117 3119 3121 3125 3127 3130 3133 3135 3135 3137 3139 3140 3142 3145 3146 3148
3080 3084 3086 3089 3095 3100 3102 3101 3111 3111 3109 3106 3097 3089 3086 3089 3091 3094 3098 3098 3098 3101 3101 3101 3101 3102 3105 3108 3110 3112 3114 3117 3118 3121 3124 3126 3129 3130 3131 3134 3134 3136 3138 3139
3076 3081 3083 3087 3091 3094 3096 3102 3107 3105 3105 3104 3089 3084 3078 3080 3085 3089 3091 3091 3092 3092 3093 3094 3095 3097 3098 3101 3101 3103 3106 3108 3110 3111 3113 3116 3120 3121 3124 3124 3125 3128 3131 3130
3072 3079 3082 3082 3081 3086 3091 3094 3099 3096 3097 3092 3086 3076 3076 3077 3081 3083 3085 3085 3085 3084 3085 3087 3088 3090 3091 3093 3094 3096 3099 3101 3101 3102 3103 3106 3111 3114 3117 3117 3119 3120 3121 3121
3068 3072 3073 3075 3080 3083 3084 3086 3091 3091 3084 3087 3086 3066 3070 3074 3077 3080 3081 3080 3077 3076 3077 3078 3080 3083 3085 3088 3088 3090 3092 3093 3093 3094 3096 3098 3102 3105 3107 3109 3110 3110 3110 3109
3063 3065 3072 3073 3076 3073 3074 3078 3081 3083 3087 3080 3084 3047 3060 3067 3073 3077 3078 3076 3073 3072 3072 3073 3076 3078 3079 3082 3082 3082 3083 3085 3086 3087 3089 3092 3095 3096 3098 3099 3100 3100 3099 3099
3058 3058 3060 3059 3064 3070 3069 3071 3075 3078 3076 3063 3073 3038 3057 3064 3067 3073 3074 3073 3071 3069 3069 3070 3072 3075 3075 3076 3077 3077 3078 3079 3081 3082 3083 3085 3087 3088 3089 3090 3091 3091 3091 3090
3054 3053 3057 3058 3062 3064 3063 3064 3065 3067 3062 3066 3045 3052 3044 3055 3062 3068 3072 3071 3069 3069 3068 3069 3071 3073 3075 3076 3076 3075 3075 3076 3077 3078 3079 3080 3081 3081 3081 3082 3083 3082 3082 3081
3049 3048 3051 3049 3052 3055 3054 3055 3054 3049 3049 3056 3044 3045 3039 3050 3054 3058 3064 3066 3065 3066 3066 3066 3067 3068 3070 3071 3071 3072 3072 3073 3073 3073 3073 3074 3074 3074 3074 3074 3074 3075 3074 3074
3046 3044 3045 3041 3047 3046 3039 3026 3037 3044 3042 3042 3038 3020 3044 3042 3045 3048 3056 3059 3058 3058 3060 3061 3062 3062 3065 3067 3067 3067 3067 3066 3065 3064 3064 3064 3064 3065 3066 3066 3067 3067 3067 3067
3037 3039 3041 3037 3041 3038 3021 3028 3030 3028 3025 3032 3029 3023 3028 3030 3035 3041 3045 3048 3050 3052 3054 3053 3054 3056 3058 3059 3060 3059 3059 3058 3056 3056 3055 3054 3054 3055 3056 3056 3057 3057 3057 3057
3031 3034 3036 3034 3029 3024 3016 3017 3024 3025 3010 3024 3019 3011 3014 3025 3028 3021 3025 3034 3040 3045 3047 3046 3046 3048 3050 3052 3051 3052 3051 3050 3049 3048 3048 3047 3046 3046 3046 3047 3047 3048 3048 3048
3022 3024 3029 3026 3020 3014 2987 3011 3019 3019 3003 3003 3006 3001 3004 3014 3015 2997 3018 3024 3029 3034 3035 3037 3038 3039 3041 3043 3043 3043 3043 3043 3043 3042 3042 3041 3040 3039 3039 3040 3040 3041 3042 3041
3009 3013 3014 3012 3012 2996 2985 3004 3011 3010 2994 2993 2995 2991 2996 2996 2993 3004 3011 3013 3018 3022 3026 3028 3030 3031 3033 3034 3034 3035 3036 3036 3036 3036 3036 3035 3034 3034 3033 3034 3034 3034 3035 3035
3002 3004 3003 3007 3009 2986 2986 2995 2993 2987 2987 2988 2992 2988 2986 2988 2992 2995 3000 3003 3007 3010 3014 3018 3021 3024 3026 3027 3027 3028 3029 3030 3031 3031 3031 3030 3029 3029 3028 3028 3028 3028 3028 3027
2995 2992 2992 2990 2979 2980 2979 2983 2983 2983 2981 2981 2983 2985 2985 2986 2987 2989 2989 2990 2994 2998 3004 3009 3012 3016 3018 3020 3022 3022 3022 3024 3026 3027 3027 3026 3026 3025 3024 3024 3023 3023 3023 3022
2983 2983 2981 2981 2973 2973 2973 2974 2977 2973 2974 2975 2976 2977 2977 2978 2979 2980 2980 2982 2984 2989 2995 3000 3005 3008 3010 3012 3014 3016 3018 3019 3021 3022 3022 3022 3021 3020 3019 3018 3017 3016 3014 3013
2972 2972 2968 2965 2962 2962 2959 2963 2966 2966 2966 2967 2967 2969 2970 2971 2971 2971 2971 2973 2978 2984 2990 2995 2998 3000 3002 3005 3008 3010 3012 3014 3015 3016 3017 3016 3014 3013 3012 3011 3009 3006 3005 3004
2954 2958 2957 2954 2953 2949 2948 2950 2955 2957 2958 2960 2962 2963 2964 2964 2962 2962 2963 2967 2972 2977 2981 2986 2989 2993 2996 2999 3002 3004 3006 3007 3008 3008 3009 3009 3008 3008 3006 3003 3000 2998 2997 2996
Wind_Speed
27 30 36 33 32 31 21 24 26 26 23 24 30 36 32 30 33 31 31 30 31 31 25 25 24 22 22 22 20 18 18 17 21 24 26 26 24 23 22 20 19 21 21 21
33 38 32 26 27 28 30 20 20 19 20 27 29 37 40 38 35 36 33 31 33 31 26 31 29 28 28 24 23 22 20 19 20 22 23 25 24 24 24 24 24 24 24 24
33 15 39 32 31 32 32 32 25 18 13 19 22 37 43 42 36 36 36 35 34 33 32 30 31 31 29 30 27 24 22 22 22 22 24 24 25 27 27 26 25 23 23 22
32 35 17 24 29 28 31 32 28 26 17 15 12 14 37 35 39 42 38 35 35 33 34 34 31 31 31 29 30 29 26 25 25 27 25 25 24 25 24 23 23 23 23 23
32 30 36 29 32 32 30 26 25 27 30 30 31 21 36 36 43 39 36 35 36 35 32 32 32 31 30 30 31 32 33 29 28 29 29 27 26 25 25 25 25 25 25 25
36 25 21 37 34 30 25 25 19 21 22 18 45 27 31 39 43 38 32 32 32 29 30 31 33 33 36 36 36 35 37 36 32 30 30 30 29 27 27 26 27 26 27 27
32 37 31 25 26 33 32 22 7 8 8 12 20 26 47 18 20 23 27 31 29 29 28 31 35 37 34 35 30 31 34 40 35 33 32 31 30 30 30 29 29 30 30 30
28 14 37 24 35 21 35 32 13 6 5 8 9 15 31 30 36 40 38 31 27 24 30 29 32 36 36 35 34 34 32 35 40 39 35 31 31 31 30 31 30 30 30 30
21 21 17 16 28 22 18 40 34 13 13 5 13 28 42 41 36 34 36 27 26 29 32 31 28 28 31 37 35 33 33 33 35 39 42 38 33 33 31 29 31 30 30 30
15 7 18 18 16 33 39 26 21 22 5 6 10 22 25 10 14 16 22 25 28 32 30 30 29 28 28 29 31 33 29 30 33 36 41 42 39 36 32 33 33 31 30 32
42 24 7 11 29 31 31 32 22 15 20 4 4 15 29 31 27 24 21 23 29 29 37 36 34 33 32 28 28 29 26 26 28 31 40 42 43 40 36 37 36 37 38 39
40 12 23 30 22 19 33 41 38 23 15 18 19 35 21 2 5 13 16 23 30 31 31 33 34 29 24 25 26 29 27 23 22 25 35 41 41 40 40 41 42 44 45 45
32 26 19 12 32 38 34 38 44 51 34 33 10 44 19 25 38 37 24 29 31 25 25 20 19 20 21 22 23 23 24 25 24 23 27 31 34 37 38 37 36 37 39 40
20 33 34 37 23 16 33 38 42 38 28 54 41 73 52 36 19 15 23 29 26 18 16 14 15 16 17 16 15 16 18 19 20 21 23 25 28 30 31 33 35 35 35 34
29 23 29 41 31 33 28 30 34 45 55 33 62 57 59 58 52 45 33 26 23 19 17 13 12 14 17 19 17 14 14 14 15 17 18 20 22 24 25 26 26 26 28 30
27 29 26 32 31 43 47 41 31 40 43 45 55 62 65 54 50 45 34 35 32 29 21 19 20 22 25 25 23 20 19 21 24 26 27 27 26 27 26 24 23 22 22 22
27 30 23 26 21 29 26 62 57 53 47 46 49 61 51 54 53 50 36 40 43 33 28 29 29 25 26 31 28 28 32 33 31 31 34 36 35 32 30 29 28 27 26 26
25 26 23 28 22 8 43 27 35 48 57 54 57 63 54 52 55 55 50 48 50 50 39 37 35 33 33 36 35 35 34 30 29 30 29 29 30 32 34 35 33 31 29 29
37 36 27 17 23 32 51 42 34 35 54 53 58 59 56 55 52 59 58 49 45 47 51 46 44 43 42 41 35 33 32 29 27 26 26 26 26 27 28 29 28 27 28 29
36 38 36 27 9 10 66 39 36 28 48 50 53 55 47 50 54 49 45 47 44 41 46 47 48 43 40 34 32 31 29 25 22 19 18 17 17 18 20 23 24 25 25 25
27 33 39 45 23 37 66 52 43 26 43 17 26 38 34 38 42 39 36 40 42 43 49 49 43 41 40 35 36 32 25 19 15 14 14 14 15 15 17 18 19 21 22 24
28 19 27 32 17 27 32 34 37 43 41 33 29 22 19 21 33 42 45 46 45 44 43 41 40 38 36 37 39 28 21 15 14 14 14 13 14 14 14 15 16 17 18 20
34 34 30 28 37 41 17 25 37 43 41 34 37 28 25 26 24 23 24 36 41 41 43 41 37 35 36 43 32 25 19 16 16 15 13 13 13 14 15 16 18 21 23 26
33 36 41 42 48 47 39 38 42 48 45 36 34 28 27 32 28 28 30 32 35 38 38 35 39 38 34 30 26 22 19 17 15 14 14 15 17 19 22 24 25 25 25 26
40 40 43 47 50 44 44 45 43 45 50 46 45 41 37 36 35 31 30 31 36 38 38 37 39 33 30 27 24 21 19 17 16 16 20 21 21 21 22 24 24 23 23 23
42 45 37 34 33 40 45 51 48 44 35 42 36 28 23 22 22 22 25 27 33 39 35 35 32 30 28 27 25 22 20 18 18 19 21 23 23 24 25 26 26 25 25 24
Wind_Direction
199 204 212 215 220 224 238 246 255 254 249 247 247 253 244 243 253 247 251 257 258 259 253 246 240 244 249 251 249 253 250 248 242 233 231 236 242 243 244 247 254 254 251 251
218 225 228 228 227 230 235 243 251 260 253 250 252 252 252 250 247 244 246 248 253 256 250 241 244 248 248 252 251 248 251 247 248 244 238 237 238 241 243 245 245 245 244 244
210 227 230 233 232 229 234 239 242 248 260 254 266 265 254 251 249 243 241 241 246 252 253 249 250 252 255 250 252 252 253 255 252 251 245 240 236 236 238 243 249 254 257 258
226 227 232 225 230 230 238 239 244 246 261 269 265 280 265 259 256 249 247 245 245 248 256 256 254 252 255 259 250 248 248 249 251 252 248 247 244 243 244 247 250 249 249 251
220 229 223 225 225 229 241 244 246 248 244 260 257 273 272 271 258 249 248 248 250 254 253 257 254 254 257 255 255 249 244 244 247 251 255 249 248 248 245 243 243 246 249 252
226 234 226 237 236 237 245 245 247 245 247 254 250 240 273 264 264 255 254 256 252 251 254 251 254 255 257 255 252 247 244 239 244 247 251 253 252 252 251 249 250 249 253 255
221 225 230 218 224 234 234 230 222 222 209 239 260 233 241 243 260 260 256 257 256 252 251 243 244 251 255 255 256 250 243 237 240 245 248 253 255 254 253 251 251 250 252 256
213 217 207 207 219 213 222 215 215 209 198 253 212 237 253 264 272 272 269 264 262 247 244 247 252 254 254 254 251 249 244 238 238 241 244 249 255 256 257 257 258 259 260 261
207 234 219 246 238 214 217 211 220 274 275 290 238 254 263 262 263 269 273 274 266 258 254 252 260 248 252 256 256 253 250 246 243 242 239 242 247 254 258 260 259 258 258 261
213 231 235 231 222 233 241 232 218 222 219 246 248 252 240 262 273 273 272 275 281 256 255 256 247 249 254 257 261 252 248 245 249 249 238 234 240 246 251 254 256 260 264 264
225 231 230 205 218 219 217 225 225 223 230 218 269 258 268 266 266 274 276 273 265 266 248 249 248 254 259 255 252 250 252 252 257 258 238 229 237 245 251 256 261 262 264 266
219 233 243 249 248 241 228 224 222 220 219 230 261 263 242 207 232 280 282 261 253 258 258 252 251 253 251 255 253 249 254 256 257 252 241 234 238 246 253 259 264 269 271 269
218 225 236 247 247 247 245 234 226 234 243 249 220 256 269 273 262 268 277 270 263 266 251 252 250 249 251 248 247 244 244 246 247 245 242 242 246 251 256 260 262 264 269 271
221 223 223 232 230 244 240 238 238 238 233 243 242 258 255 254 250 278 275 268 269 255 247 239 240 244 243 239 238 240 241 244 246 248 249 250 251 253 256 259 264 266 268 269
210 223 231 238 240 241 244 248 245 236 242 245 245 250 260 260 265 265 267 256 250 257 248 247 245 280 276 263 263 260 262 263 263 261 260 258 258 259 261 265 269 272 273 274
236 249 258 269 258 241 245 246 248 247 251 247 256 254 260 265 267 267 246 255 256 258 260 264 268 283 290 267 256 258 269 275 275 271 268 266 267 266 266 266 269 273 276 278
246 251 258 271 281 264 251 240 244 248 249 246 245 253 265 260 260 263 257 242 252 257 270 276 257 255 275 278 259 264 279 284 275 268 264 263 264 266 266 267 269 272 274 276
227 237 246 266 264 255 257 268 264 259 252 245 260 271 270 270 264 258 255 252 251 255 269 272 266 267 273 276 273 286 287 278 275 270 268 265 264 263 263 264 266 269 272 271
239 240 247 247 251 264 272 257 270 255 268 256 260 269 264 262 262 261 258 256 256 249 255 258 263 272 276 275 281 287 282 278 271 267 264 261 259 259 260 261 263 265 267 270
244 241 233 240 225 227 259 266 276 295 257 251 263 264 259 257 253 248 250 255 255 242 241 252 260 264 265 274 282 287 284 276 266 259 258 259 259 259 259 261 263 268 273 277
221 224 222 237 246 256 266 271 283 227 252 284 263 256 263 249 244 261 260 260 257 246 247 255 258 262 268 273 286 286 279 267 256 251 251 255 258 259 260 261 263 266 269 272
229 203 219 230 239 255 267 276 238 253 253 260 250 284 290 257 258 258 260 261 257 256 251 249 256 256 261 265 282 272 265 255 245 240 240 242 244 248 250 252 255 258 264 270
238 234 230 224 233 244 247 276 242 237 244 256 258 257 267 263 262 257 263 256 253 251 252 254 248 249 256 267 259 252 251 247 242 242 244 247 250 257 264 270 275 278 280 282
248 250 247 244 249 253 259 263 251 229 232 240 247 249 257 262 260 264 262 255 247 241 240 246 245 249 257 246 238 236 234 236 240 246 253 262 268 275 280 281 282 284 286 287
253 248 249 246 253 260 269 256 235 237 233 236 243 251 258 264 264 262 248 240 233 227 230 244 251 240 236 230 225 225 224 230 243 265 279 283 284 284 286 291 294 294 295 295
237 237 235 237 251 272 252 224 225 229 234 239 248 259 260 255 254 241 230 225 228 232 234 230 226 227 222 218 221 225 234 248 266 274 280 283 283 289 297 303 304 300 297 297